1491537600.32,483,10.81,72560.5,-11.69,-12.61,-12.57,0,*65
1491537601.61,484,10.81,72568.3,-11.71,-12.53,-12.57,0,*6A
1491537602.89,485,10.81,72572.5,-11.71,-12.57,-12.57,0,*6F
1491537604.18,486,10.81,72584.8,-11.71,-12.57,-12.57,0,*6C
1491537605.46,487,10.81,72586.3,-11.71,-12.57,-12.57,0,*6D
1491537606.71,488,10.81,72586.0,-11.69,-12.61,-12.57,0,*6E
1491537607.99,489,10.81,72584.0,-11.71,-12.61,-12.57,0,*66
1491537609.25,490,10.81,72586.8,-11.69,-12.61,-12.71,0,*63
1491537610.55,491,10.81,72588.0,-11.71,-12.71,-12.71,0,*6A
1491537611.83,492,10.81,72588.3,-11.71,-12.71,-12.61,0,*68
1491537613.09,493,10.81,72584.5,-11.69,-12.71,-12.61,0,*60
1491537614.37,494,10.81,72598.5,-11.71,-12.61,-12.61,0,*6F
1491537615.65,495,10.81,72592.0,-11.71,-12.71,-12.61,0,*6F
1491537616.91,496,10.81,72600.5,-11.69,-12.71,-12.61,0,*65
1491537618.19,497,10.81,72606.0,-11.71,-12.61,-12.61,0,*6C
1491537619.45,498,10.81,72596.5,-11.69,-12.57,-12.53,0,*6E
1491537620.7,499,10.81,72598.0,-11.69,-12.57,-12.57,0,*6B
1491537621.99,500,10.81,72594.8,-11.71,-12.57,-12.57,0,*63
1491537623.27,501,10.81,72596.5,-11.71,-12.61,-12.53,0,*63
1491537624.56,502,10.81,72598.0,-11.71,-12.61,-12.57,0,*64
1491537625.84,503,10.81,72596.5,-11.71,-12.61,-12.57,0,*65
1491537627.1,504,10.81,72588.8,-11.69,-12.75,-12.83,0,*67
1491537628.33,505,10.81,72590.0,-11.69,-13.01,-12.97,0,*61
1491537629.59,506,10.81,72592.0,-11.69,-12.75,-12.75,0,*6C
1491537630.88,507,10.81,72598.8,-11.71,-12.83,-12.71,0,*69
1491537632.17,508,10.81,72592.3,-11.71,-12.75,-12.71,0,*6F
1491537633.46,509,10.81,72594.3,-11.71,-12.83,-12.75,0,*63
1491537634.74,510,10.81,72592.5,-11.71,-12.61,-12.61,0,*62
1491537636.03,511,10.81,72594.3,-11.71,-12.75,-12.75,0,*63
1491537637.32,512,10.81,72596.5,-11.71,-12.83,-12.75,0,*69
1491537638.61,513,10.81,72602.0,-11.71,-12.75,-12.71,0,*65
1491537639.87,514,10.81,72598.0,-11.69,-12.83,-12.83,0,*6F
1491537641.07,515,10.81,72600.3,-11.69,-12.97,-12.89,0,*61
1491537642.31,516,10.81,72600.0,-11.71,-12.89,-12.97,0,*6B
1491537643.57,517,10.81,72602.5,-11.71,-12.89,-12.83,0,*6F
1491537644.8,518,10.81,72600.8,-11.69,-12.89,-12.75,0,*60
1491537646.06,519,10.81,72602.8,-11.69,-12.83,-12.83,0,*62
1491537647.34,520,10.81,72602.3,-11.71,-12.83,-12.83,0,*61
1491537648.63,521,10.81,72604.5,-11.71,-12.75,-12.71,0,*64
1491537649.92,522,10.81,72604.8,-11.71,-12.71,-12.61,0,*62
1491537651.18,523,10.81,72602.3,-11.69,-12.71,-12.71,0,*6B
1491537652.47,524,10.81,72604.3,-11.71,-12.71,-12.61,0,*64
1491537653.75,525,10.81,72600.8,-11.71,-12.71,-12.61,0,*65
1491537655.04,526,10.81,72598.5,-11.71,-12.71,-12.71,0,*67
1491537656.3,527,10.81,72596.0,-11.69,-12.75,-12.83,0,*66
1491537657.59,528,10.81,72594.3,-11.71,-12.83,-12.75,0,*60
1491537658.85,529,10.81,72598.8,-11.69,-12.75,-12.75,0,*61
1491537660.13,530,10.81,72604.5,-11.71,-12.83,-12.83,0,*60
1491537661.4,531,10.81,72606.3,-11.69,-12.75,-12.71,0,*6C
1491537662.66,532,10.81,72606.3,-11.71,-12.89,-12.75,0,*61
1491537663.92,533,10.81,72606.0,-11.71,-12.89,-12.83,0,*69
1491537665.2,534,10.81,72600.8,-11.71,-12.61,-12.75,0,*61
1491537666.46,535,10.81,72600.8,-11.69,-12.71,-12.61,0,*6D
1491537667.75,536,10.81,72598.0,-11.71,-12.57,-12.53,0,*62
1491537669.03,537,10.81,72606.5,-11.71,-12.57,-12.57,0,*67
1491537670.31,538,10.81,72606.3,-11.71,-12.61,-12.57,0,*6D
1491537671.61,539,10.81,72598.0,-11.71,-12.75,-12.71,0,*6D
1491537672.9,540,10.81,72606.8,-11.71,-12.61,-12.71,0,*66
1491537674.15,541,10.81,72608.0,-11.69,-12.61,-12.61,0,*6F
1491537675.43,542,10.81,72608.3,-11.71,-12.61,-12.57,0,*60
1491537676.71,543,10.81,72600.8,-11.71,-12.61,-12.57,0,*61
1491537677.97,544,10.81,72608.5,-11.69,-12.61,-12.57,0,*6F
1491537679.22,545,10.81,72608.0,-11.69,-12.61,-12.57,0,*6E
1491537680.5,546,10.81,72610.0,-11.71,-12.61,-12.61,0,*61
1491537681.76,547,10.81,72606.8,-11.69,-12.61,-12.71,0,*68
1491537683.04,548,10.81,72600.5,-11.71,-12.61,-12.61,0,*6F
1491537684.3,549,10.81,72598.8,-11.69,-12.71,-12.61,0,*66
1491537685.55,550,10.81,72602.0,-11.69,-12.61,-12.71,0,*6E
1491537686.81,551,10.81,72602.3,-11.69,-12.71,-12.61,0,*6F
1491537688.06,552,10.81,72602.8,-11.69,-12.61,-12.61,0,*6D
1491537689.34,553,10.81,72596.8,-11.71,-12.61,-12.61,0,*65
1491537690.6,554,10.81,72602.3,-11.69,-12.61,-12.71,0,*6A
1491537691.88,555,10.81,72606.5,-11.71,-12.61,-12.61,0,*63
1491537693.14,556,10.81,72602.0,-11.69,-12.61,-12.71,0,*68
1491537694.4,557,10.81,72598.5,-11.69,-12.71,-12.61,0,*69
1491537695.66,558,10.81,72594.3,-11.69,-12.71,-12.71,0,*67
1491537696.92,559,10.81,72594.5,-11.69,-12.75,-12.61,0,*63
1491537698.21,560,10.81,72592.5,-11.71,-12.75,-12.61,0,*60
1491537699.46,561,10.81,72588.0,-11.69,-12.83,-12.75,0,*64
1491537700.72,562,10.81,72578.0,-11.69,-12.75,-12.83,0,*67
1491537702.01,563,10.81,72564.5,-11.71,-12.71,-12.71,0,*66
1491537703.31,564,10.81,72586.0,-11.71,-12.71,-12.71,0,*61
1491537704.57,565,10.81,72584.5,-11.69,-12.71,-12.71,0,*69
1491537705.83,566,10.81,72586.5,-11.69,-12.75,-12.61,0,*6F
1491537707.09,567,10.81,72590.0,-11.69,-12.75,-12.75,0,*6B
1491537708.34,568,10.81,72600.3,-11.69,-12.61,-12.61,0,*64
1491537709.59,569,10.81,72594.8,-11.69,-12.61,-12.61,0,*65
1491537710.85,570,10.81,72598.3,-11.69,-12.71,-12.61,0,*6C
1491537712.1,571,10.81,72604.5,-11.69,-12.61,-12.61,0,*6C
1491537713.37,572,10.81,72606.3,-11.69,-12.75,-12.71,0,*6B
1491537714.62,573,10.81,72602.8,-11.69,-12.61,-12.61,0,*6E
1491537715.87,574,10.81,72600.0,-11.69,-12.61,-12.61,0,*69
1491537717.16,575,10.81,72598.5,-11.71,-12.71,-12.71,0,*61
1491537718.42,576,10.81,72602.3,-11.69,-12.71,-12.71,0,*6B
1491537719.68,577,10.81,72602.5,-11.69,-12.61,-12.61,0,*6A
1491537720.93,578,10.81,72602.3,-11.69,-12.61,-12.57,0,*60
1491537722.21,579,10.81,72600.3,-11.71,-12.61,-12.57,0,*68
1491537723.47,580,10.81,72600.8,-11.69,-12.57,-12.57,0,*62
1491537724.72,581,10.81,72598.3,-11.69,-12.57,-12.57,0,*63
1491537725.97,582,10.81,72596.5,-11.69,-12.61,-12.61,0,*60
1491537727.22,583,10.81,72602.0,-11.69,-12.61,-12.61,0,*61
1491537728.48,584,10.81,72606.8,-11.69,-12.71,-12.61,0,*67
1491537729.74,585,10.81,72606.0,-11.69,-12.71,-12.61,0,*66
1491537730.99,586,10.81,72606.8,-11.69,-12.61,-12.71,0,*65
1491537732.26,587,10.75,72596.8,-11.69,-12.71,-12.71,0,*65
1491537733.52,588,10.81,72596.3,-11.69,-12.71,-12.71,0,*6A
1491537734.78,589,10.81,72598.8,-11.69,-12.75,-12.75,0,*6B
1491537736.04,590,10.81,72610.8,-11.69,-12.75,-12.75,0,*63
1491537737.27,591,10.81,72608.8,-11.69,-12.83,-12.89,0,*68
1491537738.48,592,10.81,72612.5,-11.69,-12.89,-12.89,0,*61
1491537739.69,593,10.81,72606.0,-11.69,-12.89,-12.97,0,*6F
1491537740.89,594,10.81,72608.8,-11.69,-12.89,-12.89,0,*67
1491537742.16,595,10.81,72604.3,-11.69,-12.75,-12.75,0,*66
1491537743.44,596,10.81,72604.3,-11.71,-12.71,-12.61,0,*6D
1491537744.7,597,10.81,72606.0,-11.69,-12.71,-12.71,0,*64
1491537745.96,598,10.81,72602.3,-11.69,-12.75,-12.61,0,*6E
1491537747.22,599,10.81,72604.0,-11.69,-12.61,-12.71,0,*6B
1491537748.47,600,10.81,72614.3,-11.69,-12.61,-12.61,0,*69
1491537749.73,601,10.81,72616.5,-11.69,-12.61,-12.71,0,*69
1491537750.99,602,10.81,72614.3,-11.69,-12.71,-12.71,0,*6B
1491537752.25,603,10.81,72612.0,-11.69,-12.61,-12.61,0,*6A
1491537753.51,604,10.81,72608.5,-11.69,-12.71,-12.71,0,*6D
1491537754.77,605,10.81,72610.0,-11.69,-12.71,-12.71,0,*6C
1491537756.03,606,10.75,72604.0,-11.69,-12.75,-12.83,0,*66
1491537757.3,607,10.81,72604.3,-11.69,-12.75,-12.71,0,*6A
1491537758.55,608,10.81,72612.3,-11.69,-12.75,-12.61,0,*64
1491537759.81,609,10.81,72616.0,-11.69,-12.61,-12.61,0,*60
1491537761.06,610,10.81,72600.3,-11.69,-12.83,-12.75,0,*61
1491537762.32,611,10.81,72602.5,-11.69,-12.75,-12.75,0,*69
1491537763.59,612,10.81,72602.3,-11.69,-12.71,-12.71,0,*6A
1491537764.85,613,10.81,72602.0,-11.69,-12.71,-12.71,0,*6B
1491537766.11,614,10.81,72606.3,-11.69,-12.71,-12.71,0,*6C
1491537767.41,615,10.81,72606.3,-11.71,-12.71,-12.71,0,*64
1491537768.68,616,10.81,72610.0,-11.67,-12.65,-12.65,0,*60
1491537769.95,617,10.75,72608.3,-11.67,-12.65,-12.65,0,*61
1491537771.21,618,10.81,72610.5,-11.69,-12.65,-12.75,0,*61
1491537772.48,619,10.81,72612.5,-11.69,-12.75,-12.75,0,*61
1491537773.7,620,10.81,72610.5,-11.69,-12.83,-12.89,0,*61
1491537774.91,621,10.81,72610.8,-11.69,-12.97,-12.89,0,*65
1491537776.12,622,10.81,72614.5,-11.69,-12.97,-12.89,0,*66
1491537777.33,623,10.81,72612.5,-11.69,-12.97,-12.89,0,*67
1491537778.61,624,10.75,72608.3,-11.67,-12.83,-12.79,0,*64
1491537779.87,625,10.81,72608.0,-11.67,-12.93,-12.83,0,*61
1491537781.14,626,10.81,72610.3,-11.67,-12.83,-12.83,0,*63
1491537782.42,627,10.81,72604.3,-11.67,-12.83,-12.79,0,*67
1491537783.7,628,10.81,72608.0,-11.67,-12.71,-12.79,0,*65
1491537784.98,629,10.81,72610.0,-11.67,-12.83,-12.79,0,*69
1491537786.27,630,10.81,72606.8,-11.67,-12.83,-12.71,0,*69
1491537787.53,631,10.81,72604.0,-11.67,-12.93,-12.79,0,*61
1491537788.78,632,10.81,72608.5,-11.67,-12.93,-12.83,0,*67
1491537790.02,633,10.81,72610.8,-11.67,-12.93,-12.93,0,*67
1491537791.29,634,10.81,72612.3,-11.67,-12.83,-12.79,0,*65
1491537792.58,635,10.81,72614.5,-11.67,-12.79,-12.71,0,*69
1491537793.86,636,10.81,72614.3,-11.67,-12.83,-12.83,0,*62
1491537795.09,637,10.81,72610.5,-11.67,-13.07,-12.93,0,*6F
1491537796.32,638,10.81,72606.8,-11.69,-13.01,-12.97,0,*6C
1491537797.53,639,10.81,72606.8,-11.69,-12.97,-12.89,0,*6C
1491537798.79,640,10.81,72604.5,-11.69,-12.75,-12.83,0,*64
1491537800.02,641,10.81,72602.5,-11.69,-12.89,-12.83,0,*66
1491537801.25,642,10.81,72600.5,-11.69,-12.89,-12.75,0,*6C
1491537802.51,643,10.81,72600.3,-11.71,-12.89,-12.83,0,*6D
1491537803.8,644,10.81,72598.5,-11.67,-12.79,-12.71,0,*6F
1491537805.09,645,10.81,72600.3,-11.71,-12.83,-12.71,0,*6C
1491537806.35,646,10.81,72600.5,-11.69,-12.71,-12.71,0,*6B
1491537807.61,647,10.81,72598.8,-11.69,-12.71,-12.71,0,*6A
1491537808.87,648,10.81,72598.8,-11.69,-12.71,-12.71,0,*65
1491537810.13,649,10.81,72594.0,-11.69,-12.61,-12.61,0,*64
1491537811.39,650,10.81,72596.3,-11.69,-12.71,-12.75,0,*68
1491537812.64,651,10.81,72592.5,-11.69,-12.83,-12.83,0,*6D
1491537813.9,652,10.81,72598.5,-11.69,-12.75,-12.71,0,*6A
1491537815.17,653,10.81,72600.3,-11.69,-12.71,-12.71,0,*6F
1491537816.43,654,10.81,72604.0,-11.69,-12.61,-12.71,0,*69
1491537817.69,655,10.81,72602.5,-11.69,-12.75,-12.71,0,*6D
1491537818.95,656,10.81,72604.0,-11.69,-12.83,-12.71,0,*67
1491537820.16,657,10.81,72600.0,-11.69,-12.89,-12.89,0,*6B
1491537821.36,658,10.81,72588.8,-11.69,-12.89,-12.89,0,*64
1491537822.57,659,10.81,72586.8,-11.69,-12.97,-12.97,0,*65
1491537823.78,660,10.81,72590.8,-11.69,-13.23,-13.11,0,*6E
1491537825.01,661,10.81,72596.8,-11.71,-13.15,-13.11,0,*63
1491537826.21,662,10.81,72588.0,-11.69,-13.15,-13.15,0,*6D
1491537827.44,663,10.81,72586.3,-11.71,-13.11,-13.11,0,*65
1491537828.65,664,10.81,72596.5,-11.69,-12.97,-12.97,0,*6B
1491537829.91,665,10.81,72592.3,-11.71,-12.89,-12.83,0,*69
1491537831.17,666,10.81,72594.5,-11.71,-13.01,-12.97,0,*6E
1491537832.38,667,10.81,72600.0,-11.69,-12.97,-12.89,0,*67
1491537833.67,668,10.81,72596.0,-11.71,-12.83,-12.83,0,*6E
1491537834.93,669,10.81,72602.5,-11.71,-12.89,-12.83,0,*65
1491537836.19,670,10.81,72602.3,-11.71,-12.97,-12.83,0,*62
1491537837.42,671,10.81,72602.5,-11.71,-13.23,-13.23,0,*66
1491537838.71,672,10.81,72596.3,-11.71,-13.37,-13.29,0,*6A
1491537839.99,673,10.81,72596.3,-11.71,-13.29,-13.29,0,*64
1491537841.19,674,10.81,72600.0,-11.69,-13.15,-13.15,0,*6A
1491537842.42,675,10.81,72596.3,-11.73,-13.15,-13.19,0,*6C
1491537843.7,676,10.81,72590.0,-11.73,-13.29,-13.29,0,*63
1491537844.9,677,10.81,72584.5,-11.75,-13.47,-13.55,0,*67
1491537846.12,678,10.81,72584.0,-11.75,-13.61,-13.65,0,*6F
1491537847.38,679,10.81,72588.0,-11.75,-13.33,-13.33,0,*6A
1491537848.6,680,10.81,72590.5,-11.75,-13.07,-13.01,0,*6A
1491537849.85,681,10.81,72588.5,-11.75,-13.01,-13.01,0,*6D
1491537851.06,682,10.81,72594.8,-11.75,-13.15,-13.19,0,*62
1491537852.28,683,10.81,72584.8,-11.73,-13.15,-13.15,0,*69
1491537853.49,684,10.81,72588.0,-11.79,-13.23,-13.19,0,*6D
1491537854.78,685,10.81,72572.0,-11.81,-13.33,-13.33,0,*62
1491537856.01,686,10.81,72570.0,-11.79,-13.23,-13.33,0,*67
1491537857.27,687,10.81,72566.3,-11.81,-12.93,-12.83,0,*61
1491537858.53,688,10.81,72572.5,-11.79,-12.83,-12.83,0,*68
1491537859.79,689,10.81,72578.5,-11.79,-12.79,-12.79,0,*69
1491537861.04,690,10.81,72588.0,-11.79,-12.83,-12.83,0,*61
1491537862.29,691,10.81,72580.3,-11.79,-12.83,-12.83,0,*60
1491537863.55,692,10.81,72576.3,-11.79,-12.71,-12.79,0,*6B
1491537864.82,693,10.81,72580.5,-11.79,-12.71,-12.71,0,*62
1491537866.08,694,10.81,72578.5,-11.79,-12.79,-12.79,0,*65
1491537867.34,695,10.81,72572.3,-11.79,-12.71,-12.71,0,*64
1491537868.61,696,10.81,72572.8,-11.79,-12.71,-12.71,0,*67
1491537869.9,697,10.81,72574.0,-11.81,-12.71,-12.71,0,*61
1491537871.16,698,10.81,72578.8,-11.79,-12.71,-12.71,0,*69
1491537872.42,699,10.81,72582.0,-11.79,-12.71,-12.61,0,*69
1491537873.67,700,10.81,72578.5,-11.79,-12.71,-12.65,0,*6C
1491537874.93,701,10.81,72578.3,-11.79,-12.71,-12.65,0,*6D
1491537876.18,702,10.81,72582.3,-11.75,-12.65,-12.61,0,*63
1491537877.43,703,10.81,72586.0,-11.79,-12.65,-12.61,0,*6E
1491537878.69,704,10.81,72590.0,-11.75,-12.57,-12.57,0,*61
1491537879.94,705,10.81,72594.3,-11.75,-12.57,-12.57,0,*60
1491537881.17,706,10.81,72592.0,-11.75,-12.57,-12.47,0,*62
1491537882.42,707,10.81,72592.8,-11.75,-12.61,-12.57,0,*67
1491537883.65,708,10.81,72598.3,-11.75,-12.57,-12.47,0,*6C
1491537884.9,709,10.81,72598.5,-11.73,-12.61,-12.47,0,*6E
1491537886.11,710,10.81,72602.3,-11.75,-12.47,-12.47,0,*64
1491537887.38,711,10.81,72600.8,-11.73,-12.57,-12.61,0,*66
1491537888.63,712,10.81,72596.5,-11.75,-12.61,-12.61,0,*66
1491537889.88,713,10.81,72598.8,-11.75,-12.65,-12.65,0,*67
1491537891.16,714,10.81,72598.5,-11.73,-12.57,-12.57,0,*66
1491537892.41,715,10.81,72598.8,-11.73,-12.61,-12.47,0,*63
1491537893.68,716,10.81,72602.0,-11.73,-12.61,-12.61,0,*64
1491537894.93,717,10.81,72602.0,-11.75,-12.61,-12.65,0,*67
1491537896.2,718,10.81,72598.5,-11.73,-12.61,-12.61,0,*6A
1491537897.47,719,10.81,72604.0,-11.73,-12.61,-12.61,0,*6B
1491537898.75,720,10.81,72604.8,-11.73,-12.61,-12.61,0,*61
1491537900.02,721,10.81,72604.0,-11.73,-12.61,-12.65,0,*64
1491537901.29,722,10.81,72604.5,-11.73,-12.65,-12.65,0,*63
1491537902.52,723,10.81,72604.8,-11.75,-12.89,-12.79,0,*6B
1491537903.75,724,10.75,72602.5,-11.73,-12.89,-12.89,0,*65
1491537905.0,725,10.81,72602.8,-11.73,-12.89,-12.79,0,*6B
1491537906.29,726,10.81,72604.0,-11.73,-12.79,-12.75,0,*6B
1491537907.54,727,10.81,72600.8,-11.75,-12.79,-12.75,0,*6C
1491537908.82,728,10.81,72602.8,-11.73,-12.75,-12.65,0,*68
1491537910.07,729,10.81,72604.3,-11.75,-12.65,-12.65,0,*6E
1491537911.32,730,10.81,72606.3,-11.75,-12.65,-12.65,0,*66
1491537912.6,731,10.81,72604.5,-11.73,-12.75,-12.75,0,*61
1491537913.86,732,10.81,72604.5,-11.75,-12.79,-12.75,0,*68
1491537915.11,733,10.81,72602.3,-11.75,-12.65,-12.65,0,*65
1491537916.38,734,10.81,72600.5,-11.73,-12.65,-12.61,0,*60
1491537917.63,735,10.81,72602.0,-11.75,-12.65,-12.61,0,*67
1491537918.89,736,10.81,72602.3,-11.75,-12.57,-12.61,0,*65
1491537920.16,737,10.81,72596.3,-11.73,-12.61,-12.61,0,*67
1491537921.41,738,10.81,72596.3,-11.75,-12.61,-12.61,0,*6E
1491537922.68,739,10.81,72592.0,-11.73,-12.61,-12.61,0,*69
1491537923.96,740,10.81,72592.5,-11.73,-12.57,-12.61,0,*62
1491537925.23,741,10.81,72590.5,-11.73,-12.61,-12.61,0,*66
1491537926.51,742,10.75,72592.5,-11.73,-12.57,-12.61,0,*60
1491537927.78,743,10.81,72602.0,-11.73,-12.61,-12.61,0,*64
1491537929.06,744,10.81,72606.8,-11.73,-12.61,-12.61,0,*63
1491537930.33,745,10.81,72604.0,-11.73,-12.65,-12.61,0,*66
1491537931.61,746,10.81,72604.0,-11.73,-12.75,-12.75,0,*61
1491537932.87,747,10.81,72596.8,-11.73,-12.79,-12.89,0,*6F
1491537934.16,748,10.81,72594.5,-11.71,-12.75,-12.71,0,*69
1491537935.44,749,10.81,72594.0,-11.73,-12.65,-12.75,0,*6F
1491537936.72,750,10.81,72592.5,-11.73,-12.75,-12.65,0,*67
1491537937.99,751,10.81,72594.0,-11.73,-12.65,-12.61,0,*63
1491537939.27,752,10.81,72594.3,-11.73,-12.61,-12.61,0,*64
1491537940.54,753,10.81,72594.0,-11.73,-12.61,-12.61,0,*65
1491537941.82,754,10.81,72596.5,-11.73,-12.57,-12.61,0,*67
1491537943.09,755,10.81,72596.5,-11.73,-12.61,-12.61,0,*63
1491537944.37,756,10.81,72598.3,-11.73,-12.75,-12.61,0,*65
1491537945.64,757,10.81,72600.3,-11.73,-12.65,-12.65,0,*61
1491537946.92,758,10.81,72600.5,-11.71,-12.61,-12.61,0,*6C
1491537948.21,759,10.81,72602.5,-11.71,-12.61,-12.61,0,*6D
1491537949.49,760,10.75,72594.8,-11.71,-12.61,-12.61,0,*67
1491537950.77,761,10.81,72596.8,-11.71,-12.61,-12.61,0,*66
1491537952.05,762,10.81,72598.5,-11.71,-12.57,-12.61,0,*60
1491537953.33,763,10.81,72596.8,-11.73,-12.57,-12.61,0,*63
1491537954.6,764,10.81,72598.0,-11.73,-12.61,-12.57,0,*64
1491537955.88,765,10.81,72602.0,-11.73,-12.57,-12.61,0,*65
1491537957.15,766,10.81,72602.0,-11.73,-12.61,-12.61,0,*63
1491537958.43,767,10.81,72600.8,-11.73,-12.57,-12.57,0,*62
1491537959.7,768,10.81,72602.8,-11.73,-12.61,-12.61,0,*6D
1491537960.98,769,10.81,72602.5,-11.73,-12.61,-12.61,0,*6C
1491537962.27,770,10.81,72600.5,-11.71,-12.53,-12.53,0,*66
1491537963.54,771,10.81,72596.0,-11.73,-12.61,-12.61,0,*65
1491537964.82,772,10.81,72596.8,-11.71,-12.57,-12.57,0,*64
1491537966.11,773,10.81,72596.3,-11.71,-12.57,-12.53,0,*61
1491537967.4,774,10.81,72598.3,-11.71,-12.53,-12.53,0,*62
1491537968.69,775,10.81,72596.0,-11.71,-12.53,-12.53,0,*63
1491537969.96,776,10.81,72596.3,-11.71,-12.57,-12.43,0,*65
1491537971.25,777,10.81,72592.8,-11.71,-12.53,-12.53,0,*61
1491537972.51,778,10.81,72594.5,-11.71,-12.57,-12.43,0,*6B
1491537973.76,779,10.75,72594.3,-11.69,-12.57,-12.53,0,*62
1491537975.06,780,10.81,72598.0,-11.71,-12.53,-12.53,0,*69
1491537976.35,781,10.81,72596.8,-11.71,-12.53,-12.53,0,*68
1491537977.6,782,10.81,72600.8,-11.69,-12.57,-12.57,0,*62
1491537978.89,783,10.81,72600.8,-11.71,-12.53,-12.53,0,*6A
1491537980.18,784,10.81,72598.5,-11.71,-12.53,-12.57,0,*69
1491537981.47,785,10.81,72606.3,-11.71,-12.53,-12.53,0,*6C
1491537982.76,786,10.81,72600.3,-11.71,-12.57,-12.57,0,*6F
1491537984.04,787,10.81,72602.8,-11.71,-12.57,-12.57,0,*6E
1491537985.3,788,10.81,72600.5,-11.69,-12.53,-12.57,0,*6C
1491537986.56,789,10.81,72598.8,-11.69,-12.53,-12.53,0,*69
1491537987.85,790,10.81,72598.0,-11.71,-12.57,-12.57,0,*68
1491537989.13,791,10.81,72606.0,-11.71,-12.57,-12.57,0,*69
1491537990.42,792,10.81,72604.8,-11.71,-12.57,-12.57,0,*6A
1491537991.7,793,10.81,72606.3,-11.71,-12.57,-12.57,0,*6B
1491537992.96,794,10.81,72602.5,-11.69,-12.57,-12.57,0,*65
1491537994.21,795,10.81,72602.5,-11.69,-12.53,-12.57,0,*60
1491537995.5,796,10.81,72602.5,-11.71,-12.53,-12.53,0,*6E
1491537996.8,797,10.81,72600.8,-11.71,-12.53,-12.53,0,*6F
1491537998.06,798,10.81,72590.8,-11.69,-12.57,-12.53,0,*6D
1491537999.31,799,10.81,72590.8,-11.69,-12.53,-12.57,0,*6C
1491538000.57,800,10.81,72592.0,-11.69,-12.57,-12.57,0,*67
1491538001.85,801,10.81,72592.3,-11.71,-12.57,-12.57,0,*6F
1491538003.11,802,10.81,72590.5,-11.69,-12.57,-12.57,0,*65
1491538004.36,803,10.81,72590.8,-11.69,-12.57,-12.57,0,*64
1491538005.62,804,10.81,72594.5,-11.69,-12.57,-12.57,0,*63
1491538006.87,805,10.81,72594.3,-11.69,-12.61,-12.61,0,*62
1491538008.12,806,10.81,72602.0,-11.69,-12.61,-12.61,0,*61
1491538009.37,807,10.81,72596.5,-11.69,-12.61,-12.61,0,*60
1491538010.63,808,10.81,72598.5,-11.69,-12.61,-12.71,0,*6E
1491538011.88,809,10.81,72590.0,-11.69,-12.61,-12.61,0,*6E
1491538013.14,810,10.81,72592.3,-11.69,-12.61,-12.61,0,*66
1491538014.42,811,10.81,72592.5,-11.71,-12.61,-12.61,0,*6E
1491538015.7,812,10.81,72594.8,-11.71,-12.71,-12.61,0,*6C
1491538016.96,813,10.81,72602.8,-11.69,-12.71,-12.75,0,*61
1491538018.22,814,10.81,72600.3,-11.69,-12.75,-12.75,0,*62
1491538019.46,815,10.75,72600.5,-11.71,-12.89,-12.89,0,*6A
1491538020.67,816,10.81,72602.3,-11.69,-12.97,-12.97,0,*60
1491538021.93,817,10.75,72596.5,-11.71,-12.97,-13.01,0,*66
1491538023.16,818,10.81,72600.0,-11.69,-13.01,-12.97,0,*60
1491538024.4,819,10.75,72598.0,-11.69,-13.01,-12.97,0,*61
1491538025.66,820,10.81,72600.8,-11.71,-13.01,-12.89,0,*6D
1491538026.92,821,10.81,72600.8,-11.71,-12.89,-12.83,0,*67
1491538028.15,822,10.75,72598.0,-11.69,-12.97,-12.83,0,*62
1491538029.41,823,10.75,72602.0,-11.71,-12.89,-12.75,0,*6C
1491538030.65,824,10.81,72600.5,-11.71,-12.97,-12.89,0,*67
1491538031.86,825,10.81,72600.5,-11.69,-12.89,-12.97,0,*6F
1491538033.07,826,10.81,72596.3,-11.69,-12.89,-12.89,0,*63
1491538034.3,827,10.81,72598.5,-11.71,-12.89,-12.89,0,*6B
1491538035.51,828,10.81,72598.5,-11.69,-12.89,-12.89,0,*6D
1491538036.74,829,10.75,72584.8,-11.71,-12.89,-12.89,0,*65
1491538038.01,830,10.81,72586.3,-11.69,-12.75,-12.75,0,*64
1491538039.3,831,10.81,72582.0,-11.71,-12.75,-12.71,0,*68
1491538040.59,832,10.81,72572.3,-11.71,-12.75,-12.75,0,*6F
1491538041.89,833,10.81,72584.0,-11.71,-12.71,-12.71,0,*6E
1491538043.14,834,10.81,72594.5,-11.69,-12.75,-12.83,0,*69
1491538044.43,835,10.75,72594.0,-11.71,-12.83,-12.75,0,*61
1491538045.64,836,10.81,72598.3,-11.69,-12.89,-12.89,0,*62
1491538046.93,837,10.75,72602.5,-11.71,-12.75,-12.75,0,*6A
1491538048.18,838,10.75,72604.5,-11.69,-12.83,-12.83,0,*6C
1491538049.43,839,10.81,72604.8,-11.69,-12.83,-12.83,0,*6D
1491538050.71,840,10.81,72606.5,-11.71,-12.83,-12.83,0,*6A
1491538051.97,841,10.75,72602.5,-11.71,-12.89,-12.83,0,*61
1491538053.26,842,10.81,72604.5,-11.71,-12.83,-12.75,0,*61
1491538054.54,843,10.81,72604.5,-11.71,-12.83,-12.75,0,*60
1491538055.83,844,10.81,72606.3,-11.71,-12.83,-12.75,0,*67
1491538057.09,845,10.81,72604.8,-11.69,-12.83,-12.75,0,*6F
1491538058.34,846,10.81,72604.0,-11.69,-12.75,-12.83,0,*6C
1491538059.6,847,10.81,72602.0,-11.69,-12.83,-12.83,0,*64
1491538060.83,848,10.75,72598.8,-11.69,-12.89,-12.83,0,*61
1491538062.06,849,10.81,72598.5,-11.69,-13.01,-12.97,0,*64
1491538063.27,850,10.81,72604.5,-11.69,-13.11,-12.89,0,*62
1491538064.5,851,10.81,72600.5,-11.69,-13.01,-12.89,0,*62
1491538065.78,852,10.75,72592.5,-11.71,-13.01,-13.01,0,*69
1491538067.02,853,10.81,72596.5,-11.71,-12.97,-12.89,0,*67
1491538068.26,854,10.81,72598.5,-11.71,-12.89,-12.97,0,*60
1491538069.5,855,10.81,72596.5,-11.71,-12.97,-12.89,0,*61
1491538070.73,856,10.81,72594.8,-11.71,-12.97,-12.89,0,*62
1491538071.97,857,10.81,72594.8,-11.69,-13.01,-12.89,0,*64
1491538073.17,858,10.81,72596.3,-11.69,-13.11,-12.97,0,*65
1491538074.4,859,10.81,72594.8,-11.69,-13.11,-13.01,0,*6A
1491538075.6,860,10.81,72598.8,-11.69,-13.11,-13.11,0,*61
1491538076.84,861,10.81,72600.8,-11.71,-12.97,-12.89,0,*66
1491538078.08,862,10.81,72606.0,-11.71,-12.89,-12.89,0,*6A
1491538079.31,863,10.81,72608.0,-11.69,-13.01,-12.89,0,*63
1491538080.55,864,10.81,72608.8,-11.71,-12.97,-12.97,0,*6C
1491538081.79,865,10.81,72606.0,-11.71,-12.97,-12.89,0,*62
1491538083.03,866,10.81,72606.0,-11.71,-12.97,-12.89,0,*61
1491538084.31,867,10.81,72606.8,-11.71,-12.83,-12.75,0,*66
1491538085.57,868,10.81,72606.8,-11.69,-12.83,-12.75,0,*60
1491538086.83,869,10.75,72606.0,-11.71,-12.89,-12.83,0,*6B
1491538088.12,870,10.75,72606.5,-11.71,-12.75,-12.75,0,*69
1491538089.41,871,10.81,72610.5,-11.71,-12.75,-12.75,0,*68
1491538090.71,872,10.75,72610.5,-11.71,-12.75,-12.71,0,*6F
1491538092.0,873,10.81,72608.3,-11.71,-12.71,-12.71,0,*6A
1491538093.27,874,10.75,72606.5,-11.69,-12.75,-12.71,0,*60
1491538094.56,875,10.75,72608.3,-11.71,-12.75,-12.71,0,*68
1491538095.81,876,10.81,72608.0,-11.69,-12.61,-12.61,0,*66
1491538097.1,877,10.81,72610.5,-11.71,-12.71,-12.61,0,*6F
1491538098.36,878,10.75,72610.5,-11.69,-12.83,-12.71,0,*65
1491538099.64,879,10.81,72610.8,-11.71,-12.75,-12.61,0,*65
1491538100.91,880,10.81,72608.0,-11.69,-12.71,-12.71,0,*6F
1491538102.2,881,10.81,72608.8,-11.71,-12.61,-12.71,0,*66
1491538103.45,882,10.81,72608.3,-11.69,-12.75,-12.61,0,*68
1491538104.74,883,10.75,72610.0,-11.71,-12.61,-12.71,0,*64
1491538106.0,884,10.81,72612.5,-11.69,-12.71,-12.61,0,*6A
1491538107.25,885,10.81,72612.3,-11.69,-12.61,-12.61,0,*6A
1491538108.5,886,10.81,72618.5,-11.69,-12.61,-12.61,0,*69
1491538109.79,887,10.81,72616.5,-11.71,-12.61,-12.71,0,*60
1491538111.08,888,10.75,72614.8,-11.71,-12.71,-12.61,0,*6F
1491538112.36,889,10.75,72614.8,-11.71,-12.61,-12.61,0,*6F